KF0ZH Weather Reports


Display with metric or nautical units.
time (UTC)temp
F
wind
direction
speed
MPH
gust
MPH
rain 1hr
in
rain 24hr
in
rain mn
in
humidity
%
barometer
mb
20260906103301 69 57 0.0 0.0 0.00 0.00 0.00 99 1016.1
20260906103030 69 57 0.0 0.0 0.00 0.00 0.00 99 1016.1
20260906102801 69 57 0.0 0.0 0.00 0.00 0.00 99 1016.1
20260906102429 69 57 0.0 0.0 0.00 0.00 0.00 99 1016.1
20260906102334 69 57 0.0 0.0 0.00 0.00 0.00 99 1016.1
20260906102305 69 57 0.0 0.0 0.00 0.00 0.00 99 1016.1
20260906102020 69 57 0.0 0.0 0.00 0.00 0.00 99 1016.0
20260906101801 69 57 0.0 0.0 0.00 0.00 0.00 99 1016.0
20260906101301 69 57 0.0 0.0 0.00 0.00 0.00 99 1016.0
20260906100815 69 57 0.0 0.0 0.00 0.00 0.00 99 1015.9
20260906100333 69 57 0.0 0.0 0.00 0.00 0.00 99 1015.9
20260906100301 69 57 0.0 0.0 0.00 0.00 0.00 99 1015.9
20260906095801 69 57 0.0 0.0 0.00 0.00 0.00 99 1015.9
20260906094559 70 57 0.0 0.0 0.00 0.00 0.00 99 1015.6
20260906094301 70 57 0.0 0.0 0.00 0.00 0.00 99 1015.6
20260906093301 70 57 0.0 0.0 0.00 0.00 0.00 99 1015.5
20260906092804 70 57 0.0 0.0 0.00 0.00 0.00 99 1015.4
20260906092229 71 57 0.0 0.0 0.00 0.00 0.00 98 1015.3
20260906091801 71 57 0.0 0.0 0.00 0.00 0.00 98 1015.3
20260906091306 71 57 0.0 0.0 0.00 0.00 0.00 98 1015.2
20260906090354 71 87 0.0 3.0 0.00 0.00 0.00 98 1015.1
20260906090301 71 87 0.0 3.0 0.00 0.00 0.00 98 1015.1
20260906085654 71 81 0.0 0.0 0.00 0.00 0.00 97 1015.2
20260906085455 71 81 0.0 0.0 0.00 0.00 0.00 97 1015.2
20260906085423 71 81 0.0 0.0 0.00 0.00 0.00 97 1015.2
20260906085337 71 81 0.0 0.0 0.00 0.00 0.00 97 1015.2
20260906085302 71 81 0.0 0.0 0.00 0.00 0.00 97 1015.2
20260906085242 71 84 0.0 3.0 0.00 0.00 0.00 97 1015.2
20260906084801 71 84 0.0 3.0 0.00 0.00 0.00 97 1015.2
20260906084301 71 73 0.0 0.0 0.00 0.00 0.00 97 1015.2
20260906083811 71 67 0.0 4.0 0.00 0.00 0.00 97 1015.2
20260906083341 71 45 0.0 3.0 0.00 0.00 0.00 97 1015.1
20260906083302 71 45 0.0 3.0 0.00 0.00 0.00 97 1015.1
20260906082848 71 75 0.0 0.0 0.00 0.00 0.00 96 1015.1
20260906082803 71 75 0.0 0.0 0.00 0.00 0.00 96 1015.1
20260906082152 71 75 0.0 0.0 0.00 0.00 0.00 96 1014.8
20260906081836 71 75 0.0 0.0 0.00 0.00 0.00 96 1014.8
20260906081801 71 75 0.0 0.0 0.00 0.00 0.00 96 1014.8
20260906081302 71 75 0.0 0.0 0.00 0.00 0.00 96 1014.7
20260906080415 72 75 0.0 0.0 0.00 0.00 0.00 96 1014.7
20260906080344 72 75 0.0 0.0 0.00 0.00 0.00 96 1014.7
20260906080301 72 75 0.0 0.0 0.00 0.00 0.00 96 1014.7
20260906080224 72 75 0.0 0.0 0.00 0.00 0.00 96 1014.8
20260906075801 72 75 0.0 0.0 0.00 0.00 0.00 96 1014.8
20260906074801 72 75 0.0 4.0 0.00 0.00 0.00 95 1015.0
20260906074339 72 90 3.0 3.0 0.00 0.00 0.00 95 1014.8
20260906074306 72 90 3.0 3.0 0.00 0.00 0.00 95 1014.8
20260906072815 72 99 0.0 0.0 0.00 0.00 0.00 95 1015.1
20260906072305 73 99 0.0 0.0 0.00 0.00 0.00 95 1015.1
20260906071851 72 99 0.0 0.0 0.00 0.00 0.00 95 1015.2
20260906071811 72 99 0.0 0.0 0.00 0.00 0.00 95 1015.2
20260906064807 72 115 0.0 0.0 0.00 0.00 0.00 96 1015.5
20260906064604 72 115 0.0 0.0 0.00 0.00 0.00 96 1015.6
20260906064303 72 115 0.0 0.0 0.00 0.00 0.00 96 1015.6
20260906063837 72 115 0.0 0.0 0.00 0.00 0.00 96 1015.6
20260906063802 72 115 0.0 0.0 0.00 0.00 0.00 96 1015.6
20260906063103 73 115 0.0 0.0 0.00 0.00 0.00 96 1015.5
20260906062801 73 115 0.0 0.0 0.00 0.00 0.00 96 1015.5
20260906062305 73 115 0.0 0.0 0.00 0.00 0.00 96 1015.4
20260906061301 73 115 0.0 0.0 0.00 0.00 0.00 96 1015.5
20260906055801 73 115 0.0 0.0 0.00 0.00 0.00 96 1015.5
20260906054051 73 115 0.0 0.0 0.00 0.00 0.00 95 1015.4
20260906053852 73 115 0.0 0.0 0.00 0.00 0.00 95 1015.4
20260906053812 73 115 0.0 0.0 0.00 0.00 0.00 95 1015.4
20260906053600 73 115 0.0 0.0 0.00 0.00 0.00 95 1015.4
20260906053332 73 115 0.0 0.0 0.00 0.00 0.00 95 1015.4
20260906053301 73 115 0.0 0.0 0.00 0.00 0.00 95 1015.4
20260906053122 73 115 0.0 0.0 0.00 0.00 0.00 95 1015.5
20260906052833 73 115 0.0 0.0 0.00 0.00 0.00 95 1015.5
20260906052801 73 115 0.0 0.0 0.00 0.00 0.00 95 1015.5
20260906052507 73 115 0.0 0.0 0.00 0.00 0.00 95 1015.5
20260906052334 73 115 0.0 0.0 0.00 0.00 0.00 95 1015.5
20260906052305 73 115 0.0 0.0 0.00 0.00 0.00 95 1015.5
20260906052131 73 115 0.0 0.0 0.00 0.00 0.00 95 1015.4
20260906051801 73 115 0.0 0.0 0.00 0.00 0.00 95 1015.4
20260906051650 73 115 0.0 0.0 0.00 0.00 0.00 94 1015.5
20260906051335 73 115 0.0 0.0 0.00 0.00 0.00 94 1015.5
20260906051301 73 115 0.0 0.0 0.00 0.00 0.00 94 1015.5
20260906050408 73 115 0.0 0.0 0.00 0.00 0.00 94 1015.7
20260906050301 73 115 0.0 0.0 0.00 0.00 0.00 94 1015.7
20260906050216 73 115 0.0 0.0 0.00 0.00 0.00 93 1015.8
20260906045840 73 115 0.0 0.0 0.00 0.00 0.00 93 1015.8
20260906045806 73 115 0.0 0.0 0.00 0.00 0.00 93 1015.8
20260906045343 73 115 0.0 0.0 0.00 0.00 0.00 93 1015.8
20260906045305 73 115 0.0 0.0 0.00 0.00 0.00 93 1015.8
20260906044339 74 115 0.0 0.0 0.00 0.00 0.00 93 1015.8
20260906044301 74 115 0.0 0.0 0.00 0.00 0.00 93 1015.8
20260906043834 74 115 0.0 0.0 0.00 0.00 0.00 93 1015.8
20260906043801 74 115 0.0 0.0 0.00 0.00 0.00 93 1015.8
20260906043302 74 115 0.0 0.0 0.00 0.00 0.00 92 1015.8
20260906042801 74 115 0.0 0.0 0.00 0.00 0.00 92 1015.8
20260906042332 74 115 0.0 0.0 0.00 0.00 0.00 92 1015.8
20260906042302 74 115 0.0 0.0 0.00 0.00 0.00 92 1015.8
20260906042120 74 115 0.0 0.0 0.00 0.00 0.00 92 1015.9
20260906041801 74 115 0.0 0.0 0.00 0.00 0.00 92 1015.9
20260906041302 74 115 0.0 0.0 0.00 0.00 0.00 92 1015.9
20260906040805 74 115 0.0 0.0 0.00 0.00 0.00 92 1015.8
20260906040301 74 115 0.0 0.0 0.00 0.00 0.00 92 1015.8
20260906034805 74 40 0.0 6.0 0.00 0.00 0.00 92 1015.9
20260906034301 74 149 0.0 0.0 0.00 0.00 0.00 92 1015.9
20260906033807 74 149 0.0 0.0 0.00 0.00 0.00 92 1015.8
20260906033301 74 149 0.0 0.0 0.00 0.00 0.00 92 1015.8
20260906033139 74 149 0.0 0.0 0.00 0.00 0.00 91 1015.8
20260906032801 74 149 0.0 0.0 0.00 0.00 0.00 91 1015.8
20260906032717 74 149 0.0 0.0 0.00 0.00 0.00 91 1015.8
20260906032305 74 149 0.0 0.0 0.00 0.00 0.00 91 1015.8
20260906030853 75 149 0.0 0.0 0.00 0.00 0.00 90 1015.8
20260906030812 75 149 0.0 0.0 0.00 0.00 0.00 90 1015.8
20260906030622 75 149 0.0 0.0 0.00 0.00 0.00 90 1015.8
20260906030304 75 149 0.0 0.0 0.00 0.00 0.00 90 1015.8
20260906025803 75 149 0.0 0.0 0.00 0.00 0.00 90 1015.9
20260906024301 75 149 0.0 0.0 0.00 0.00 0.00 89 1015.9
20260906022801 75 149 0.0 0.0 0.00 0.00 0.00 88 1015.8
20260906022302 75 149 0.0 0.0 0.00 0.00 0.00 88 1015.6
20260906021801 76 149 0.0 0.0 0.00 0.00 0.00 88 1015.6
20260906020742 76 149 0.0 0.0 0.00 0.00 0.00 87 1015.1
20260906020344 76 149 0.0 0.0 0.00 0.00 0.00 87 1015.1
20260906020301 76 149 0.0 0.0 0.00 0.00 0.00 87 1015.1
20260906015714 76 171 0.0 0.0 0.00 0.00 0.00 87 1014.7
20260906015325 76 171 0.0 0.0 0.00 0.00 0.00 87 1014.7
20260906014558 77 147 0.0 3.0 0.00 0.00 0.00 86 1014.5
20260906014301 77 147 0.0 3.0 0.00 0.00 0.00 86 1014.5
20260906013556 77 191 0.0 5.0 0.00 0.00 0.00 85 1014.2
20260906013401 77 191 0.0 5.0 0.00 0.00 0.00 85 1014.2
20260906013307 77 191 0.0 5.0 0.00 0.00 0.00 85 1014.2
20260906013122 77 172 6.0 6.0 0.00 0.00 0.00 85 1014.1
20260906012801 77 172 6.0 6.0 0.00 0.00 0.00 85 1014.1
20260906012116 77 126 0.0 0.0 0.00 0.00 0.00 84 1013.9
20260906011801 77 126 0.0 0.0 0.00 0.00 0.00 84 1013.9
20260906011302 78 126 0.0 0.0 0.00 0.00 0.00 83 1013.7
20260906011037 78 126 0.0 2.0 0.00 0.00 0.00 82 1013.7
20260906010801 78 126 0.0 2.0 0.00 0.00 0.00 82 1013.7
20260906010649 78 210 2.0 4.0 0.00 0.00 0.00 82 1013.6
20260906010552 78 210 2.0 4.0 0.00 0.00 0.00 82 1013.6
20260906010333 78 210 2.0 4.0 0.00 0.00 0.00 82 1013.6
20260906010301 78 210 2.0 4.0 0.00 0.00 0.00 82 1013.6
20260906005801 78 168 0.0 7.0 0.00 0.00 0.00 81 1013.6
20260906005518 79 123 0.0 6.0 0.00 0.00 0.00 81 1013.6
20260906005338 79 123 0.0 6.0 0.00 0.00 0.00 81 1013.6
20260906005301 79 123 0.0 6.0 0.00 0.00 0.00 81 1013.6
20260906004056 79 118 3.0 8.0 0.00 0.00 0.00 79 1013.4
20260906003813 79 118 3.0 8.0 0.00 0.00 0.00 79 1013.4
20260906003638 80 187 5.0 11.0 0.00 0.00 0.00 78 1013.5
20260906003301 80 187 5.0 11.0 0.00 0.00 0.00 78 1013.5
20260906002801 80 165 0.0 0.0 0.00 0.00 0.00 78 1013.5
20260906002305 80 165 0.0 9.0 0.00 0.00 0.00 78 1013.4
20260906002040 80 172 0.0 3.0 0.00 0.00 0.00 77 1013.4
20260906001831 80 172 0.0 3.0 0.00 0.00 0.00 77 1013.4
20260906001801 80 172 0.0 3.0 0.00 0.00 0.00 77 1013.4
20260906001307 80 123 0.0 6.0 0.00 0.00 0.00 77 1013.3
20260906000538 81 137 3.0 7.0 0.00 0.00 0.00 76 1013.2
20260906000303 81 137 3.0 7.0 0.00 0.00 0.00 76 1013.2
20260905235539 81 170 0.0 4.0 0.00 0.00 0.00 75 1013.1
20260905235334 81 170 0.0 4.0 0.00 0.00 0.00 75 1013.1
20260905235306 81 170 0.0 4.0 0.00 0.00 0.00 75 1013.1
20260905234801 81 185 0.0 8.0 0.00 0.00 0.00 74 1013.2
20260905233114 83 82 0.0 0.0 0.00 0.00 0.00 70 1013.1
20260905232801 83 82 0.0 0.0 0.00 0.00 0.00 70 1013.1
20260905232305 83 82 0.0 4.0 0.00 0.00 0.00 70 1013.0
20260905231801 83 67 0.0 0.0 0.00 0.00 0.00 70 1012.8
20260905230812 83 77 1.0 7.0 0.00 0.00 0.00 68 1012.8
20260905225305 83 40 0.0 6.0 0.00 0.00 0.00 69 1012.7
20260905224801 83 102 4.0 7.0 0.00 0.00 0.00 69 1012.5
20260905223812 83 33 5.0 7.0 0.00 0.00 0.00 70 1012.5
20260905223301 82 88 4.0 6.0 0.00 0.00 0.00 70 1012.4
20260905223202 82 33 9.0 11.0 0.00 0.00 0.00 70 1012.3
20260905222801 82 33 9.0 11.0 0.00 0.00 0.00 70 1012.3
20260905222333 82 102 5.0 7.0 0.00 0.00 0.00 71 1012.4
20260905222305 82 102 5.0 7.0 0.00 0.00 0.00 71 1012.4
20260905221836 82 57 6.0 11.0 0.00 0.00 0.00 71 1012.4
20260905221801 82 57 6.0 11.0 0.00 0.00 0.00 71 1012.4
20260905221333 82 60 0.0 12.0 0.00 0.00 0.00 72 1012.4
20260905221301 82 60 0.0 12.0 0.00 0.00 0.00 72 1012.4
20260905220817 82 132 8.0 10.0 0.00 0.00 0.00 71 1012.5
20260905220301 82 102 0.0 8.0 0.00 0.00 0.00 73 1012.6
20260905215801 81 90 1.0 9.0 0.00 0.00 0.00 73 1012.6
20260905214856 81 15 3.0 8.0 0.00 0.00 0.00 73 1012.9
20260905214803 81 84 0.0 9.0 0.00 0.00 0.00 73 1012.8
20260905214301 81 15 3.0 8.0 0.00 0.00 0.00 73 1012.9
20260905213839 81 97 5.0 9.0 0.00 0.00 0.00 72 1012.8
20260905213804 81 97 5.0 9.0 0.00 0.00 0.00 72 1012.8
20260905213301 81 95 5.0 10.0 0.00 0.00 0.00 71 1013.0
20260905213005 83 52 9.0 9.0 0.00 0.00 0.00 69 1013.0
20260905212801 82 60 3.0 7.0 0.00 0.00 0.00 71 1013.0
20260905211801 83 52 9.0 9.0 0.00 0.00 0.00 69 1013.0
20260905211302 83 99 3.0 5.0 0.00 0.00 0.00 70 1013.1
20260905210801 82 21 5.0 11.0 0.00 0.00 0.00 70 1013.1
20260905210301 82 90 6.0 10.0 0.00 0.00 0.00 70 1013.0
20260905205801 82 91 3.0 12.0 0.00 0.00 0.00 71 1013.0
20260905205301 82 21 3.0 9.0 0.00 0.00 0.00 73 1012.9
20260905204806 82 63 10.0 16.0 0.00 0.00 0.00 72 1012.9
20260905202338 81 113 9.0 12.0 0.00 0.00 0.00 77 1013.3
20260905202301 81 113 9.0 12.0 0.00 0.00 0.00 77 1013.3
20260905201801 81 71 5.0 11.0 0.00 0.00 0.00 78 1013.4
20260905200831 80 26 8.0 12.0 0.00 0.00 0.00 79 1013.7
20260905200801 80 26 8.0 12.0 0.00 0.00 0.00 79 1013.7
20260905195819 81 57 6.0 12.0 0.00 0.00 0.00 79 1014.1
20260905194801 80 68 13.0 13.0 0.00 0.00 0.00 78 1014.1
20260905193804 80 45 6.0 10.0 0.00 0.00 0.00 80 1014.2
20260905193654 80 101 6.0 7.0 0.00 0.00 0.00 80 1014.3
20260905193301 80 101 6.0 7.0 0.00 0.00 0.00 80 1014.3
20260905192804 80 47 6.0 6.0 0.00 0.00 0.00 81 1014.5
20260905192305 80 105 4.0 5.0 0.00 0.00 0.00 81 1014.5
20260905192226 80 74 0.0 5.0 0.00 0.00 0.00 82 1014.5
20260905191801 80 74 0.0 5.0 0.00 0.00 0.00 82 1014.5
20260905191301 80 104 4.0 4.0 0.00 0.00 0.00 82 1014.6
20260905190801 79 18 0.0 0.0 0.00 0.00 0.00 84 1014.6
20260905190303 79 18 0.0 0.0 0.00 0.00 0.00 83 1014.8
20260905190205 79 18 0.0 0.0 0.00 0.00 0.00 84 1014.7
20260905185800 79 18 0.0 0.0 0.00 0.00 0.00 84 1014.7
20260905185305 78 18 0.0 0.0 0.00 0.00 0.00 84 1014.8
20260905183801 78 18 0.0 0.0 0.00 0.00 0.00 85 1014.8
20260905183310 78 358 0.0 4.0 0.00 0.00 0.00 86 1015.0
20260905182833 78 358 0.0 4.0 0.00 0.00 0.00 86 1015.0
20260905182801 78 358 0.0 4.0 0.00 0.00 0.00 86 1015.0
20260905182301 78 32 0.0 5.0 0.00 0.00 0.00 85 1015.1
20260905182156 78 132 0.0 0.0 0.00 0.00 0.00 86 1015.0
20260905181838 78 132 0.0 0.0 0.00 0.00 0.00 86 1015.0
20260905181801 78 132 0.0 0.0 0.00 0.00 0.00 86 1015.0
20260905181300 77 132 0.0 0.0 0.00 0.00 0.00 86 1015.0
20260905180820 77 168 3.0 5.0 0.00 0.00 0.00 86 1015.2
20260905180559 77 181 0.0 4.0 0.00 0.00 0.00 87 1015.2
20260905180300 77 181 0.0 4.0 0.00 0.00 0.00 87 1015.2
20260905180134 77 177 0.0 6.0 0.00 0.00 0.00 88 1015.3
20260905175800 77 177 0.0 6.0 0.00 0.00 0.00 88 1015.3
20260905175607 77 175 4.0 4.0 0.00 0.00 0.00 88 1015.4
20260905175332 77 175 4.0 4.0 0.00 0.00 0.00 88 1015.4
20260905175309 77 22 0.0 0.0 0.00 0.00 0.00 88 1015.4
20260905175301 77 175 4.0 4.0 0.00 0.00 0.00 88 1015.4
20260905174833 77 22 0.0 0.0 0.00 0.00 0.00 88 1015.4
20260905174802 77 22 0.0 0.0 0.00 0.00 0.00 88 1015.4
20260905174502 76 90 4.0 5.0 0.00 0.00 0.00 89 1015.5
20260905174305 76 90 4.0 5.0 0.00 0.00 0.00 89 1015.5
20260905173835 76 198 2.0 4.0 0.00 0.00 0.00 89 1015.6
20260905173645 76 174 7.0 8.0 0.00 0.00 0.00 88 1015.9
20260905173317 76 205 3.0 5.0 0.00 0.00 0.00 89 1015.8
20260905173300 76 174 7.0 8.0 0.00 0.00 0.00 88 1015.9
20260905172801 76 205 3.0 5.0 0.00 0.00 0.00 89 1015.8
20260905172345 75 161 0.0 4.0 0.00 0.00 0.00 92 1015.8
20260905171800 75 161 0.0 4.0 0.00 0.00 0.00 92 1015.8
20260905171632 75 60 0.0 3.0 0.00 0.00 0.00 93 1015.9
20260905171301 75 60 0.0 3.0 0.00 0.00 0.00 93 1015.9
20260905164300 73 46 5.0 9.0 0.00 0.00 0.00 96 1015.9
20260905163829 73 94 3.0 4.0 0.00 0.00 0.00 97 1016.0
20260905163418 73 52 6.0 6.0 0.00 0.00 0.00 97 1016.0
20260905163301 73 94 3.0 4.0 0.00 0.00 0.00 97 1016.0
20260905162800 73 52 6.0 6.0 0.00 0.00 0.00 97 1016.0
20260905161800 73 47 2.0 6.0 0.00 0.00 0.00 99 1015.8
20260905161300 73 33 0.0 2.0 0.00 0.00 0.00 99 1015.8
20260905155305 72 67 4.0 4.0 0.00 0.00 0.00 99 1015.9
20260905154300 72 25 4.0 5.0 0.00 0.00 0.00 99 1015.8
20260905153802 71 33 0.0 7.0 0.00 0.00 0.00 99 1015.9
20260905153305 71 32 0.0 4.0 0.00 0.00 0.00 99 1015.8
20260905152350 70 11 0.0 3.0 0.00 0.00 0.00 99 1016.0
20260905151804 70 11 0.0 3.0 0.00 0.00 0.00 99 1016.0
20260905151333 70 334 0.0 3.0 0.00 0.00 0.00 99 1016.0
20260905151300 70 334 0.0 3.0 0.00 0.00 0.00 99 1016.0
20260905150814 70 63 4.0 7.0 0.00 0.00 0.00 99 1015.8
20260905150410 70 116 0.0 5.0 0.00 0.00 0.00 99 1015.4
20260905145800 70 116 0.0 5.0 0.00 0.00 0.00 99 1015.4
20260905145446 70 94 5.0 7.0 0.00 0.00 0.00 99 1015.4
20260905145344 70 94 5.0 7.0 0.00 0.00 0.00 99 1015.4
20260905145301 70 94 5.0 7.0 0.00 0.00 0.00 99 1015.4
20260905144843 69 5 6.0 8.0 0.00 0.00 0.00 99 1015.3
20260905144800 69 5 6.0 8.0 0.00 0.00 0.00 99 1015.3
20260905143456 69 33 0.0 7.0 0.00 0.00 0.00 99 1015.3
20260905143301 69 33 0.0 7.0 0.00 0.00 0.00 99 1015.3
20260905143135 69 59 0.0 5.0 0.00 0.00 0.00 99 1015.3
20260905142800 69 75 3.0 7.0 0.00 0.00 0.00 99 1015.4
20260905142420 69 59 0.0 5.0 0.00 0.00 0.00 99 1015.3
20260905142305 69 59 0.0 5.0 0.00 0.00 0.00 99 1015.3
20260905141803 69 53 3.0 6.0 0.00 0.00 0.00 99 1015.4
20260905141350 69 73 0.0 4.0 0.00 0.00 0.00 99 1015.3
20260905141300 69 73 0.0 4.0 0.00 0.00 0.00 99 1015.3
20260905135335 69 11 2.0 4.0 0.00 0.00 0.00 99 1015.4
20260905135301 69 11 2.0 4.0 0.00 0.00 0.00 99 1015.4
20260905134345 69 23 3.0 6.0 0.00 0.00 0.00 99 1015.4
20260905134303 69 23 3.0 6.0 0.00 0.00 0.00 99 1015.4
20260905133343 68 56 5.0 5.0 0.00 0.00 0.00 99 1015.5
20260905133301 68 56 5.0 5.0 0.00 0.00 0.00 99 1015.5
20260905133213 69 46 0.0 0.0 0.00 0.00 0.00 99 1015.6
20260905132802 69 46 0.0 0.0 0.00 0.00 0.00 99 1015.6
20260905132441 69 46 0.0 0.0 0.00 0.00 0.00 99 1015.5
20260905132334 69 46 0.0 0.0 0.00 0.00 0.00 99 1015.5
20260905132305 69 46 0.0 0.0 0.00 0.00 0.00 99 1015.5
20260905131540 68 46 0.0 0.0 0.00 0.00 0.00 99 1015.3
20260905131348 68 46 0.0 0.0 0.00 0.00 0.00 99 1015.2
20260905131336 68 46 0.0 0.0 0.00 0.00 0.00 99 1015.3
20260905131300 68 46 0.0 0.0 0.00 0.00 0.00 99 1015.3
20260905131158 68 46 0.0 0.0 0.00 0.00 0.00 99 1015.2
20260905130800 68 46 0.0 0.0 0.00 0.00 0.00 99 1015.2
20260905125839 68 46 0.0 0.0 0.00 0.00 0.00 99 1014.8
20260905125800 68 46 0.0 0.0 0.00 0.00 0.00 99 1014.8
20260905125352 68 46 0.0 0.0 0.00 0.00 0.00 99 1014.7
20260905125306 68 46 0.0 0.0 0.00 0.00 0.00 99 1014.7
20260905124800 68 46 0.0 0.0 0.00 0.00 0.00 99 1014.5
20260905123802 68 46 0.0 0.0 0.00 0.00 0.00 99 1014.1
20260905123340 68 42 0.0 3.0 0.00 0.00 0.00 99 1013.9
20260905123300 68 42 0.0 3.0 0.00 0.00 0.00 99 1013.9
20260905122307 68 19 0.0 0.0 0.00 0.00 0.00 99 1013.7
20260905121332 68 71 5.0 5.0 0.00 0.00 0.00 99 1014.0
20260905121300 68 71 5.0 5.0 0.00 0.00 0.00 99 1014.0
20260905120544 68 4 0.0 0.0 0.00 0.00 0.00 99 1014.2
20260905120402 68 4 0.0 0.0 0.00 0.00 0.00 99 1014.2
20260905120301 68 4 0.0 0.0 0.00 0.00 0.00 99 1014.2
20260905120235 68 4 0.0 0.0 0.00 0.00 0.00 99 1014.2
20260905115921 68 4 0.0 0.0 0.00 0.00 0.00 99 1014.2
20260905115835 68 4 0.0 0.0 0.00 0.00 0.00 99 1014.2
20260905115802 68 4 0.0 0.0 0.00 0.00 0.00 99 1014.2
20260905114410 68 42 0.0 6.0 0.00 0.00 0.00 99 1014.2
20260905114300 68 42 0.0 6.0 0.00 0.00 0.00 99 1014.2
20260905113051 68 29 2.0 4.0 0.00 0.00 0.00 99 1013.9
20260905112913 68 29 2.0 4.0 0.00 0.00 0.00 99 1013.9
20260905112802 68 29 2.0 4.0 0.00 0.00 0.00 99 1013.9
20260905112305 68 60 2.0 8.0 0.00 0.00 0.00 99 1013.7
20260905111910 68 47 3.0 7.0 0.00 0.00 0.00 99 1013.7
20260905111800 68 47 3.0 7.0 0.00 0.00 0.00 99 1013.7
20260905111714 68 105 4.0 9.0 0.00 0.00 0.00 99 1013.8
20260905111400 68 105 4.0 9.0 0.00 0.00 0.00 99 1013.8
20260905111300 68 105 4.0 9.0 0.00 0.00 0.00 99 1013.8
20260905110751 68 68 0.0 5.0 0.00 0.00 0.00 99 1013.8
20260905110333 68 68 0.0 5.0 0.00 0.00 0.00 99 1013.8
20260905110301 68 68 0.0 5.0 0.00 0.00 0.00 99 1013.8